Time,TemperatureF,DewpointF,PressureIn,WindDirection,WindDirectionDegrees,WindSpeedMPH,WindSpeedGustMPH,Humidity,HourlyPrecipIn,Conditions,Clouds,dailyrainin,SoftwareType,DateUTC
2013-07-13 00:00:00,63.3,62.4,30.11,SE,132,0.0,0.0,97,0.00,,,0.00,Wunderground v.1.15,2013-07-13 04:00:00,
2013-07-13 00:05:00,63.2,62.3,30.11,SE,132,0.0,0.0,97,0.00,,,0.00,Wunderground v.1.15,2013-07-13 04:05:00,
2013-07-13 00:10:00,63.2,62.3,30.11,SE,132,0.0,0.0,97,0.00,,,0.00,Wunderground v.1.15,2013-07-13 04:10:00,
2013-07-13 00:20:00,63.0,62.1,30.11,SE,132,0.0,0.0,97,0.00,,,0.00,Wunderground v.1.15,2013-07-13 04:20:00,
2013-07-13 00:25:00,62.9,62.0,30.11,SE,132,0.0,0.0,97,0.00,,,0.00,Wunderground v.1.15,2013-07-13 04:25:00,
2013-07-13 00:30:00,62.9,62.0,30.11,SE,132,0.0,0.0,97,0.00,,,0.00,Wunderground v.1.15,2013-07-13 04:30:00,
2013-07-13 00:35:00,62.8,61.9,30.11,SE,132,0.0,0.0,97,0.00,,,0.00,Wunderground v.1.15,2013-07-13 04:35:00,
2013-07-13 00:45:00,62.5,61.6,30.11,SE,132,0.0,0.0,97,0.00,,,0.00,Wunderground v.1.15,2013-07-13 04:45:00,
2013-07-13 00:50:00,62.6,61.7,30.11,SE,132,0.0,0.0,97,0.00,,,0.00,Wunderground v.1.15,2013-07-13 04:50:00,
2013-07-13 01:00:00,62.4,61.5,30.11,SE,132,0.0,0.0,97,0.00,,,0.00,Wunderground v.1.15,2013-07-13 05:00:00,
2013-07-13 01:05:00,62.5,61.9,30.11,SE,132,0.0,0.0,98,0.00,,,0.00,Wunderground v.1.15,2013-07-13 05:05:00,
2013-07-13 01:15:00,62.6,62.0,30.11,SE,132,0.0,0.0,98,0.00,,,0.00,Wunderground v.1.15,2013-07-13 05:15:00,
2013-07-13 01:25:00,63.4,62.8,30.11,SE,132,0.0,1.0,98,0.00,,,0.00,Wunderground v.1.15,2013-07-13 05:25:00,
2013-07-13 01:35:00,65.0,63.8,30.11,SE,130,1.0,1.0,96,0.00,,,0.00,Wunderground v.1.15,2013-07-13 05:35:00,
2013-07-13 01:45:00,65.5,63.7,30.11,SE,128,1.0,2.0,94,0.00,,,0.00,Wunderground v.1.15,2013-07-13 05:45:00,
2013-07-13 01:55:00,65.3,62.9,30.11,SE,128,0.0,1.0,92,0.00,,,0.00,Wunderground v.1.15,2013-07-13 05:55:00,
2013-07-13 02:00:00,65.0,62.9,30.11,SE,128,0.0,0.0,93,0.00,,,0.00,Wunderground v.1.15,2013-07-13 06:00:00,
2013-07-13 02:05:00,64.9,62.8,30.11,SE,128,0.0,0.0,93,0.00,,,0.00,Wunderground v.1.15,2013-07-13 06:05:00,
2013-07-13 02:15:00,64.5,62.4,30.11,SE,128,0.0,0.0,93,0.00,,,0.00,Wunderground v.1.15,2013-07-13 06:15:00,
2013-07-13 02:20:00,64.4,62.3,30.11,SE,128,0.0,0.0,93,0.00,,,0.00,Wunderground v.1.15,2013-07-13 06:20:00,
2013-07-13 02:30:00,64.0,62.2,30.11,SE,128,0.0,0.0,94,0.00,,,0.00,Wunderground v.1.15,2013-07-13 06:30:00,
2013-07-13 02:35:00,63.8,62.0,30.12,SE,128,0.0,0.0,94,0.00,,,0.00,Wunderground v.1.15,2013-07-13 06:35:00,
2013-07-13 02:45:00,63.8,62.3,30.12,SE,128,0.0,0.0,95,0.00,,,0.00,Wunderground v.1.15,2013-07-13 06:45:00,
2013-07-13 02:50:00,63.8,62.0,30.12,SE,128,0.0,0.0,94,0.00,,,0.00,Wunderground v.1.15,2013-07-13 06:50:00,
2013-07-13 02:55:00,64.1,62.6,30.12,SE,128,0.0,0.0,95,0.00,,,0.00,Wunderground v.1.15,2013-07-13 06:55:00,
2013-07-13 03:05:00,64.5,62.7,30.12,SE,128,0.0,0.0,94,0.00,,,0.00,Wunderground v.1.15,2013-07-13 07:05:00,
2013-07-13 03:15:00,64.9,62.5,30.12,SE,128,0.0,0.0,92,0.00,,,0.00,Wunderground v.1.15,2013-07-13 07:15:00,
2013-07-13 03:20:00,64.9,62.5,30.12,SE,128,0.0,0.0,92,0.00,,,0.00,Wunderground v.1.15,2013-07-13 07:20:00,
2013-07-13 03:30:00,64.8,62.4,30.12,SE,128,0.0,0.0,92,0.00,,,0.00,Wunderground v.1.15,2013-07-13 07:30:00,
2013-07-13 03:40:00,64.7,62.3,30.11,SE,127,0.0,1.0,92,0.00,,,0.00,Wunderground v.1.15,2013-07-13 07:40:00,
2013-07-13 18:40:00,76.7,70.1,30.18,East,90,1.0,1.0,80,0.00,,,0.00,Wunderground v.1.15,2013-07-13 22:40:00,
2013-07-13 18:45:00,76.4,69.8,30.18,SE,131,1.0,4.0,80,0.00,,,0.00,Wunderground v.1.15,2013-07-13 22:45:00,
2013-07-13 18:55:00,76.0,69.7,30.18,SE,125,1.0,4.0,81,0.00,,,0.00,Wunderground v.1.15,2013-07-13 22:55:00,
2013-07-13 19:00:00,75.9,70.0,30.18,SE,125,0.0,4.0,82,0.00,,,0.00,Wunderground v.1.15,2013-07-13 23:00:00,
2013-07-13 19:05:00,75.9,70.4,30.19,East,95,0.0,4.0,83,0.00,,,0.00,Wunderground v.1.15,2013-07-13 23:05:00,
2013-07-13 19:15:00,75.7,70.2,30.19,SSE,152,0.0,0.0,83,0.00,,,0.00,Wunderground v.1.15,2013-07-13 23:15:00,
2013-07-13 19:20:00,75.7,70.2,30.19,SSE,152,0.0,0.0,83,0.00,,,0.00,Wunderground v.1.15,2013-07-13 23:20:00,
2013-07-13 19:30:00,75.5,70.3,30.19,SE,138,1.0,1.0,84,0.00,,,0.00,Wunderground v.1.15,2013-07-13 23:30:00,
2013-07-13 19:35:00,75.3,70.1,30.20,SE,146,0.0,3.0,84,0.00,,,0.00,Wunderground v.1.15,2013-07-13 23:35:00,
2013-07-13 19:45:00,75.1,70.3,30.20,SSE,151,0.0,0.0,85,0.00,,,0.00,Wunderground v.1.15,2013-07-13 23:45:00,
2013-07-13 19:50:00,75.0,70.2,30.20,ESE,108,0.0,3.0,85,0.00,,,0.00,Wunderground v.1.15,2013-07-13 23:50:00,
2013-07-13 19:55:00,74.8,70.0,30.20,ESE,108,1.0,4.0,85,0.00,,,0.00,Wunderground v.1.15,2013-07-13 23:55:00,
2013-07-13 20:05:00,74.4,69.9,30.20,ESE,116,2.0,3.0,86,0.00,,,0.00,Wunderground v.1.15,2013-07-14 00:05:00,
2013-07-13 20:15:00,74.2,69.7,30.20,ESE,113,1.0,3.0,86,0.00,,,0.00,Wunderground v.1.15,2013-07-14 00:15:00,
2013-07-13 20:25:00,74.0,69.9,30.20,ESE,115,1.0,4.0,87,0.00,,,0.00,Wunderground v.1.15,2013-07-14 00:25:00,
2013-07-13 20:30:00,73.8,69.7,30.20,ESE,115,1.0,1.0,87,0.00,,,0.00,Wunderground v.1.15,2013-07-14 00:30:00,
2013-07-13 20:35:00,73.6,69.5,30.20,ESE,113,1.0,1.0,87,0.00,,,0.00,Wunderground v.1.15,2013-07-14 00:35:00,
2013-07-13 20:45:00,73.4,69.6,30.20,ESE,115,1.0,3.0,88,0.00,,,0.00,Wunderground v.1.15,2013-07-14 00:45:00,
2013-07-13 20:50:00,73.3,69.5,30.20,ESE,115,1.0,1.0,88,0.00,,,0.00,Wunderground v.1.15,2013-07-14 00:50:00,
2013-07-13 21:00:00,73.0,69.6,30.20,ESE,116,1.0,3.0,89,0.00,,,0.00,Wunderground v.1.15,2013-07-14 01:00:00,
2013-07-13 21:05:00,72.9,69.5,30.20,ESE,117,2.0,3.0,89,0.00,,,0.00,Wunderground v.1.15,2013-07-14 01:05:00,
2013-07-13 21:15:00,72.9,69.5,30.20,ESE,117,2.0,5.0,89,0.00,,,0.00,Wunderground v.1.15,2013-07-14 01:15:00,
2013-07-13 21:20:00,72.9,69.5,30.20,ESE,117,2.0,2.0,89,0.00,,,0.00,Wunderground v.1.15,2013-07-14 01:20:00,
2013-07-13 21:30:00,72.6,69.2,30.20,ESE,117,1.0,1.0,89,0.00,,,0.00,Wunderground v.1.15,2013-07-14 01:30:00,
2013-07-13 21:35:00,72.5,69.1,30.20,ESE,113,1.0,1.0,89,0.00,,,0.00,Wunderground v.1.15,2013-07-14 01:35:00,
2013-07-13 21:45:00,72.2,69.1,30.20,ESE,116,1.0,4.0,90,0.00,,,0.00,Wunderground v.1.15,2013-07-14 01:45:00,
2013-07-13 21:50:00,72.0,68.9,30.21,ESE,115,0.0,0.0,90,0.00,,,0.00,Wunderground v.1.15,2013-07-14 01:50:00,
2013-07-13 21:55:00,71.8,68.7,30.21,SSE,158,0.0,0.0,90,0.00,,,0.00,Wunderground v.1.15,2013-07-14 01:55:00,
2013-07-13 22:05:00,71.6,68.8,30.21,ESE,104,1.0,2.0,91,0.00,,,0.00,Wunderground v.1.15,2013-07-14 02:05:00,
2013-07-13 22:15:00,71.4,69.0,30.21,ESE,112,1.0,3.0,92,0.00,,,0.00,Wunderground v.1.15,2013-07-14 02:15:00,
2013-07-13 22:25:00,71.3,68.9,30.21,ESE,120,2.0,2.0,92,0.00,,,0.00,Wunderground v.1.15,2013-07-14 02:25:00,
2013-07-13 22:30:00,71.2,68.8,30.21,ESE,122,2.0,2.0,92,0.00,,,0.00,Wunderground v.1.15,2013-07-14 02:30:00,
2013-07-13 22:35:00,71.2,68.8,30.21,SE,126,1.0,2.0,92,0.00,,,0.00,Wunderground v.1.15,2013-07-14 02:35:00,
2013-07-13 22:45:00,71.0,68.6,30.21,SSE,148,1.0,2.0,92,0.00,,,0.00,Wunderground v.1.15,2013-07-14 02:45:00,
2013-07-13 22:50:00,70.9,68.8,30.21,ESE,115,1.0,1.0,93,0.00,,,0.00,Wunderground v.1.15,2013-07-14 02:50:00,
2013-07-13 22:55:00,70.9,68.8,30.21,SE,138,2.0,2.0,93,0.00,,,0.00,Wunderground v.1.15,2013-07-14 02:55:00,
2013-07-13 23:05:00,71.1,69.0,30.20,SSE,151,1.0,2.0,93,0.00,,,0.00,Wunderground v.1.15,2013-07-14 03:05:00,
2013-07-13 23:15:00,71.1,68.7,30.20,SE,132,1.0,1.0,92,0.00,,,0.00,Wunderground v.1.15,2013-07-14 03:15:00,
2013-07-13 23:25:00,71.1,68.7,30.21,SE,131,0.0,1.0,92,0.00,,,0.00,Wunderground v.1.15,2013-07-14 03:25:00,
2013-07-13 23:30:00,71.0,68.9,30.21,SE,131,0.0,0.0,93,0.00,,,0.00,Wunderground v.1.15,2013-07-14 03:30:00,
2013-07-13 23:35:00,70.8,68.7,30.21,SE,131,0.0,0.0,93,0.00,,,0.00,Wunderground v.1.15,2013-07-14 03:35:00,
2013-07-13 23:45:00,70.2,67.8,30.21,SE,131,0.0,0.0,92,0.00,,,0.00,Wunderground v.1.15,2013-07-14 03:45:00,
2013-07-13 23:50:00,69.7,67.6,30.21,SE,131,0.0,0.0,93,0.00,,,0.00,Wunderground v.1.15,2013-07-14 03:50:00,
2013-07-13 23:55:00,69.5,67.7,30.21,SE,131,0.0,0.0,94,0.00,,,0.00,Wunderground v.1.15,2013-07-14 03:55:00,